Fremont, MI

4:04 AM EST on December 15, 2017 (GMT -0500)
Fremont

Weather History for KFFX - January, 2013

Change the Weather History Date:

Tuesday, January 15, 2013

  Actual Average (KMKG) Record (KMKG)
Temperature  
Mean Temperature 24 °F -  
Max Temperature 29 °F 27 °F 57 °F (1949)
Min Temperature 19 °F 14 °F -12 °F (1972)
Degree Days  
Heating Degree Days 41    
Moisture  
Dew Point 17 °F    
Average Humidity 76    
Maximum Humidity 88    
Minimum Humidity 64    
Precipitation  
Precipitation 0.00 in - - ()
Sea Level Pressure  
Sea Level Pressure 30.29 in    
Wind  
Wind Speed 3 mph (South)    
Max Wind Speed 10 mph    
Max Gust Speed -    
Visibility 10 miles    
Events      
Averages and records for this station are not official NWS values.
T = Trace of Precipitation, MM = Missing Value Source: NWS Daily Summary

Daily Weather History Graph

Daily Weather History Graph

Search for Another Location

Airport or City:

Trip Planner

Search our weather history database for the weather conditions in past years. The results will help you decide how hot, cold, wet, or windy it might be!

Date:

Astronomy

Jan. 15, 2013 Rise Set
Actual Time 8:13 AM EST 5:33 PM EST
Civil Twilight 7:41 AM EST 6:05 PM EST
Nautical Twilight 7:06 AM EST 6:40 PM EST
Astronomical Twilight 6:32 AM EST 7:15 PM EST
Moon 10:09 AM EST 10:33 PM EST
Length of Visible Light 10h 23m
Length of Day
9h 20m
Waxing Crescent, 19% of the Moon is Illuminated
Jan 15
Waxing Crescent
Jan 18
First Quarter
Jan 26
Full
Feb 3
Last Quarter
Feb 10
New

Hourly Weather History & Observations

Time (EST) Temp. Windchill Dew Point Humidity Pressure Visibility Wind Dir Wind Speed Gust Speed Precip Events Conditions
12:15 AM 21.6 °F - 18.1 °F 87% 30.35 in 10.0 mi Calm Calm - N/A   Overcast
12:35 AM 21.6 °F - 18.1 °F 87% 30.35 in 10.0 mi Calm Calm - N/A   Overcast
12:55 AM 21.9 °F - 18.7 °F 87% 30.36 in 10.0 mi Calm Calm - N/A   Overcast
1:15 AM 22.1 °F - 19.0 °F 88% 30.36 in 10.0 mi Calm Calm - N/A   Overcast
1:35 AM 22.8 °F - 18.5 °F 83% 30.37 in 10.0 mi Calm Calm - N/A   Overcast
1:54 AM 23.0 °F - 18.0 °F 81% 30.37 in 10.0 mi Calm Calm - N/A   Overcast
2:15 AM 22.8 °F 16.7 °F 17.4 °F 80% 30.37 in 10.0 mi West 4.6 mph - N/A   Overcast
2:34 AM 22.8 °F 18.2 °F 17.6 °F 80% 30.37 in 10.0 mi West 3.5 mph - N/A   Overcast
2:55 AM 22.6 °F 18.0 °F 17.8 °F 82% 30.37 in 10.0 mi WNW 3.5 mph - N/A   Overcast
3:15 AM 22.3 °F 17.6 °F 17.4 °F 82% 30.37 in 10.0 mi WNW 3.5 mph - N/A   Overcast
3:35 AM 21.2 °F 14.9 °F 16.5 °F 82% 30.37 in 10.0 mi WNW 4.6 mph - N/A   Overcast
3:54 AM 20.8 °F 14.4 °F 16.2 °F 82% 30.37 in 10.0 mi West 4.6 mph - N/A   Overcast
4:15 AM 20.8 °F 14.4 °F 15.6 °F 80% 30.36 in 10.0 mi WNW 4.6 mph - N/A   Mostly Cloudy
4:35 AM 20.5 °F 14.0 °F 15.8 °F 82% 30.37 in 10.0 mi WNW 4.6 mph - N/A   Overcast
4:55 AM 20.3 °F 15.4 °F 15.8 °F 83% 30.36 in 10.0 mi West 3.5 mph - N/A   Overcast
5:15 AM 20.7 °F 15.8 °F 15.8 °F 81% 30.36 in 10.0 mi West 3.5 mph - N/A   Overcast
5:55 AM 22.1 °F 15.9 °F 16.2 °F 78% 30.35 in 10.0 mi West 4.6 mph - N/A   Overcast
6:15 AM 22.5 °F 17.8 °F 16.5 °F 78% 30.36 in 10.0 mi West 3.5 mph - N/A   Overcast
6:35 AM 22.5 °F 17.8 °F 15.4 °F 74% 30.36 in 10.0 mi West 3.5 mph - N/A   Overcast
6:55 AM 22.1 °F - 15.3 °F 75% 30.36 in 10.0 mi Calm Calm - N/A   Overcast
7:15 AM 21.9 °F - 14.9 °F 74% 30.36 in 10.0 mi Calm Calm - N/A   Overcast
7:35 AM 20.3 °F - 14.5 °F 78% 30.36 in 10.0 mi Calm Calm - N/A   Mostly Cloudy
7:55 AM 19.4 °F - 14.4 °F 81% 30.36 in 10.0 mi Calm Calm - N/A   Mostly Cloudy
8:15 AM 19.4 °F - 14.7 °F 82% 30.37 in 10.0 mi Calm Calm - N/A   Mostly Cloudy
8:34 AM 20.3 °F - 14.5 °F 78% 30.37 in 10.0 mi Calm Calm - N/A   Overcast
8:55 AM 19.4 °F - 15.3 °F 84% 30.37 in 10.0 mi Calm Calm - N/A   Overcast
9:15 AM 21.9 °F 15.7 °F 17.4 °F 83% 30.37 in 10.0 mi NE 4.6 mph - N/A   Overcast
9:35 AM 23.0 °F 17.0 °F 17.6 °F 80% 30.37 in 10.0 mi ENE 4.6 mph - N/A   Mostly Cloudy
9:55 AM 23.5 °F 17.6 °F 17.4 °F 77% 30.37 in 10.0 mi East 4.6 mph - N/A   Scattered Clouds
10:14 AM 23.9 °F 18.0 °F 17.2 °F 76% 30.37 in 10.0 mi East 4.6 mph - N/A   Clear
10:35 AM 24.6 °F 20.3 °F 17.1 °F 73% 30.37 in 10.0 mi East 3.5 mph - N/A   Scattered Clouds
10:55 AM 25.2 °F 20.9 °F 17.1 °F 71% 30.38 in 10.0 mi East 3.5 mph - N/A   Scattered Clouds
11:15 AM 26.2 °F 22.1 °F 17.8 °F 70% 30.37 in 10.0 mi ESE 3.5 mph - N/A   Mostly Cloudy
11:35 AM 26.4 °F - 16.9 °F 67% 30.37 in 10.0 mi Calm Calm - N/A   Mostly Cloudy
11:55 AM 27.0 °F - 17.1 °F 66% 30.36 in 10.0 mi Calm Calm - N/A   Mostly Cloudy
12:15 PM 27.1 °F 19.7 °F 18.1 °F 69% 30.35 in 10.0 mi South 6.9 mph - N/A   Overcast
12:35 PM 27.5 °F 19.3 °F 17.2 °F 65% 30.33 in 10.0 mi South 8.1 mph - N/A   Overcast
12:55 PM 27.7 °F 19.6 °F 18.1 °F 67% 30.31 in 10.0 mi South 8.1 mph - N/A   Overcast
1:15 PM 27.7 °F 21.3 °F 16.9 °F 64% 30.29 in 10.0 mi SSW 5.8 mph - N/A   Overcast
1:35 PM 28.0 °F 22.8 °F 18.3 °F 67% 30.31 in 10.0 mi South 4.6 mph - N/A   Overcast
1:54 PM 28.2 °F 22.0 °F 18.1 °F 66% 30.30 in 10.0 mi South 5.8 mph - N/A   Overcast
2:15 PM 28.8 °F 23.7 °F 18.3 °F 65% 30.29 in 10.0 mi SSW 4.6 mph - N/A   Overcast
2:35 PM 28.4 °F 23.3 °F 18.7 °F 67% 30.28 in 10.0 mi SSW 4.6 mph - N/A   Overcast
2:55 PM 28.8 °F 20.9 °F 19.2 °F 68% 30.28 in 10.0 mi South 8.1 mph - N/A   Overcast
3:15 PM 28.8 °F 20.9 °F 18.9 °F 67% 30.27 in 10.0 mi South 8.1 mph - N/A   Overcast
3:35 PM 29.3 °F 21.5 °F 18.5 °F 64% 30.26 in 10.0 mi South 8.1 mph - N/A   Mostly Cloudy
3:55 PM 29.1 °F 20.0 °F 18.3 °F 64% 30.26 in 10.0 mi South 10.4 mph - N/A   Mostly Cloudy
4:15 PM 28.8 °F 20.9 °F 18.1 °F 65% 30.26 in 10.0 mi South 8.1 mph - N/A   Mostly Cloudy
4:34 PM 28.4 °F 21.2 °F 18.7 °F 67% 30.26 in 10.0 mi South 6.9 mph - N/A   Mostly Cloudy
4:55 PM 28.8 °F 21.7 °F 19.4 °F 68% 30.24 in 10.0 mi South 6.9 mph - N/A   Overcast
5:14 PM 27.7 °F 18.8 °F 18.9 °F 69% 30.24 in 10.0 mi South 9.2 mph - N/A   Mostly Cloudy
5:35 PM 26.6 °F 21.2 °F 19.2 °F 74% 30.24 in 10.0 mi South 4.6 mph - N/A   Scattered Clouds
5:54 PM 25.7 °F 20.1 °F 19.0 °F 76% 30.24 in 10.0 mi South 4.6 mph - N/A   Mostly Cloudy
6:15 PM 26.6 °F 21.2 °F 18.3 °F 71% 30.24 in 10.0 mi South 4.6 mph - N/A   Overcast
6:34 PM 25.7 °F 19.0 °F 18.3 °F 74% 30.23 in 10.0 mi South 5.8 mph - N/A   Scattered Clouds
6:53 PM 25.3 °F 21.1 °F 18.1 °F 74% 30.22 in 10.0 mi South 3.5 mph - N/A   Clear
7:15 PM 25.0 °F 20.7 °F 17.6 °F 74% 30.23 in 10.0 mi SSE 3.5 mph - N/A   Scattered Clouds
7:35 PM 24.4 °F 20.1 °F 17.4 °F 75% 30.23 in 10.0 mi SSE 3.5 mph - N/A   Clear
7:55 PM 24.6 °F 18.8 °F 17.6 °F 75% 30.22 in 10.0 mi SSE 4.6 mph - N/A   Scattered Clouds
8:15 PM 24.6 °F 20.3 °F 18.0 °F 76% 30.20 in 10.0 mi SSE 3.5 mph - N/A   Scattered Clouds
8:35 PM 24.1 °F - 18.1 °F 78% 30.19 in 10.0 mi Calm Calm - N/A   Scattered Clouds
8:55 PM 23.9 °F - 18.1 °F 79% 30.18 in 10.0 mi Calm Calm - N/A   Scattered Clouds
9:15 PM 23.4 °F - 18.0 °F 80% 30.16 in 10.0 mi Calm Calm - N/A   Scattered Clouds
9:35 PM 23.4 °F - 18.1 °F 80% 30.16 in 10.0 mi Calm Calm - N/A   Scattered Clouds
9:55 PM 22.8 °F - 18.0 °F 82% 30.15 in 10.0 mi Calm Calm - N/A   Clear
10:15 PM 22.3 °F - 17.8 °F 83% 30.14 in 10.0 mi Calm Calm - N/A   Clear
10:34 PM 22.1 °F 17.4 °F 17.6 °F 83% 30.12 in 10.0 mi SSE 3.5 mph - N/A   Clear
10:55 PM 21.9 °F 17.2 °F 17.4 °F 83% 30.11 in 10.0 mi SSE 3.5 mph - N/A   Clear
11:14 PM 22.6 °F 18.0 °F 17.6 °F 81% 30.11 in 10.0 mi SSE 3.5 mph - N/A   Scattered Clouds
11:35 PM 23.5 °F 19.1 °F 18.3 °F 80% 30.10 in 10.0 mi SSE 3.5 mph - N/A   Overcast
11:55 PM 24.4 °F 17.5 °F 18.5 °F 78% 30.10 in 10.0 mi SSE 5.8 mph - N/A   Overcast